Location: Auckland
(36.8670°S, 174.7670°E)
Time: 10:24:56
(UTC+12:00)

Tiros 1 despin weight - Pass Details

Date: 26 July 2019
Orbit: 594 x 642 km, 48.2° (Epoch: 19 August)

Event Time Altitude Azimuth Distance (km) Brightness Sun altitude
Rises 03:22:26 0° 233° (SW) 2,863 - -48.2°
Reaches altitude 10° 03:24:54 10° 223° (SW) 1,962 - -47.8°
Maximum altitude 03:29:01 34° 157° (SSE) 1,014 - -47.0°
Drops below altitude 10° 03:33:10 10° 91° (E) 1,974 - -46.1°
Exits shadow 03:35:02 - 83° (E) 2,650 ? -45.8°
Sets 03:35:39 0° 81° (E) 2,883 ? -45.6°
